sat.trackr.live / text

‹ back to catalog

STARLINK-37933

NORAD 69532 · 2026-133AA

PAYLOAD ACTIVE UNKNOWN

§ Identity

Operator
Country
US
Launch date
2026-06-12
Launch site
AFETR
Launch vehicle
Mass (kg)
RCS (m²)

Purposes: comms

External: N2YO · Heavens-Above · Gunter

§ Orbital elements

Epoch: 2026-09-19T14:49:58.454688Z

Period
93.85 min
Inclination
53.1567°
Eccentricity
0.0000781
Mean motion
15.34399452 rev/d
Perigee alt
462.2 km
Apogee alt
463.2 km
Semi-major
6,840.8 km
B*
5.2888e-4
RAAN
234.1813°
Arg perigee
104.4391°
Mean anomaly
255.6699°
Rev number
1,662

§ Raw data

STARLINK-379331 69532U 26133AA  26262.61803767  .00017534  00000+0  52888-3 0  99992 69532  53.1567 234.1813 0000781 104.4391 255.6699 15.34399452 16626

JSON: /api/v1/satellites/69532 · /tle

For live sub-satellite position, see the globe view (requires WebGL).

§ Visibility from observer

Set your observer location to see the next 7 days of passes ≥ 10°. The values pass through the URL so the page stays shareable.

No JS? Fill the form by hand. The geolocation button needs JavaScript.